[[{"header":{"parameterUnit":"m.s-1","parameterCategory":1,"la1":30.2991,"la2":30.254,"lo1":-89.0895,"lo2":-89.0444,"dy":0.0017,"dx":0.0017,"nx":28,"ny":28,"refTime":"2024-06-11T21:00:00:Z","depth":0,"parameterNumber":2,"parameterNumberName":"U-component_of_WINDS"},"data":[0,0,0,0,0,0,0,0,0,0,0,0,0,0,0,0,0,0,0,0,0,0,0,0,0,0,0,0,0,0,0,0,0,0,0,0,0,0,0,0,0,0,0,0,0,0,0,0,0,0,0,0,0,0,0,0,0,0,-1.0724,-1.0724,0,-1.0698,-1.0698,-1.0698,-1.0695,-1.0695,-1.0695,-1.0695,-1.0665,-1.0664,-1.0663,0,0,0,0,0,0,0,0,0,0,0,0,0,-1.0767,-1.0766,-1.0724,-1.0724,-1.0723,-1.0698,-1.0698,-1.0698,-1.0694,-1.0695,-1.0695,-1.0695,-1.0665,-1.0664,-1.0663,0,0,0,0,0,0,0,0,0,0,0,0,0,-1.0745,-1.0766,-1.0724,-1.0719,-1.0718,-1.0698,-1.0698,-1.0697,-1.0694,-1.0695,-1.0695,-1.0696,-1.0666,-1.0664,-1.0663,-1.0645,0,0,-1.0658,-1.0657,0,0,0,0,0,0,0,0,-1.0746,-1.0744,-1.072,-1.0719,-1.0718,-1.07,-1.0702,-1.068,-1.0694,-1.0703,-1.0695,-1.0696,-1.0676,-1.0674,-1.0668,-1.0644,-1.0642,-1.0658,-1.0657,-1.0656,-1.0656,0,0,0,0,0,0,0,-1.0748,-1.0745,-1.0714,-1.072,-1.0719,-1.0717,-1.0714,-1.0698,-1.0688,-1.0703,-1.0702,-1.0699,-1.0676,-1.0669,-1.0667,-1.0642,-1.0658,-1.0657,-1.0656,-1.0655,-1.0601,-1.06,0,0,0,0,0,0,-1.0751,-1.0746,-1.0715,-1.0713,-1.0734,-1.0716,-1.0713,-1.0706,-1.0688,-1.0686,-1.0699,-1.0699,-1.0672,-1.0669,-1.0666,-1.0644,-1.0656,-1.0655,-1.0654,-1.0601,-1.0601,-1.06,0,0,0,0,0,0,-1.0752,-1.0748,-1.0716,-1.0729,-1.0725,-1.0714,-1.0706,-1.0705,-1.0699,-1.0685,-1.0683,-1.0695,-1.0672,-1.0668,-1.065,-1.0643,-1.0654,-1.0653,-1.0602,-1.0601,-1.06,-1.06,0,0,0,0,0,0,-1.0753,-1.0748,-1.0743,-1.0729,-1.0724,-1.0702,-1.0706,-1.0704,-1.0696,-1.0696,-1.0681,-1.0679,-1.0672,-1.0653,-1.0649,-1.0641,-1.0651,-1.0602,-1.0601,-1.0601,-1.06,-1.0599,-1.0598,0,0,0,0,0,-1.0755,-1.0743,-1.0743,-1.0739,-1.0717,-1.0701,-1.0698,-1.0692,-1.0696,-1.0689,-1.068,-1.0679,-1.0644,-1.0651,-1.0647,-1.0638,-1.0603,-1.0602,-1.0601,-1.0601,-1.0599,-1.0598,0,0,0,0,0,0,-1.0755,-1.0741,-1.074,-1.0724,-1.0714,-1.0701,-1.0693,-1.0691,-1.0679,-1.0679,-1.0671,-1.0667,-1.065,-1.0642,-1.065,-1.0619,-1.0624,-1.0622,-1.0625,-1.0624,-1.0622,-1.0625,-1.065,0,0,0,0,0,-1.0753,-1.0743,-1.0731,-1.0718,-1.0713,-1.0703,-1.0696,-1.0693,-1.0681,-1.0676,-1.0666,-1.0654,-1.064,-1.0631,-1.0618,-1.0599,-1.0595,-1.059,-1.0589,-1.0588,-1.0587,-1.0575,-1.0573,-1.0596,-1.0596,-1.0596,0,0,-1.0749,-1.074,-1.0734,-1.0717,-1.0709,-1.0697,-1.07,-1.0687,-1.0678,-1.0674,-1.0657,-1.0649,-1.0634,-1.0616,-1.0607,-1.0609,-1.0579,-1.0587,-1.0586,-1.0585,-1.0574,-1.0571,-1.0569,-1.0596,-1.0596,-1.0596,0,0,-1.0736,-1.0729,-1.0717,-1.0709,-1.0696,-1.069,-1.0687,-1.0674,-1.0669,-1.0652,-1.0648,-1.0636,-1.0613,-1.0603,-1.0594,-1.0576,-1.0574,-1.0572,-1.0565,-1.0554,-1.0552,-1.0551,-1.0544,-1.0541,-1.057,-1.057,-1.057,0,-1.0733,-1.0716,-1.0711,-1.0698,-1.069,-1.0687,-1.0674,-1.0666,-1.0649,-1.0643,-1.0646,-1.0616,-1.0606,-1.0585,-1.058,-1.0574,-1.0569,-1.0574,-1.0553,-1.0551,-1.055,-1.0543,-1.054,-1.057,-1.057,-1.057,-1.057,0,-1.0712,-1.07,-1.0692,-1.0677,-1.0668,-1.0655,-1.0647,-1.0638,-1.0635,-1.0628,-1.0609,-1.0597,-1.0581,-1.0576,-1.0572,-1.0553,-1.0555,-1.0555,-1.0559,-1.0547,-1.0541,-1.0538,-1.057,-1.057,-1.057,-1.057,0,0,-1.0699,-1.0682,-1.0678,-1.0671,-1.0657,-1.0647,-1.0633,-1.0619,-1.0611,-1.0599,-1.0587,-1.0566,-1.0567,-1.0557,-1.0552,-1.0542,-1.0528,-1.0544,-1.0543,-1.0541,-1.0505,-1.0505,-1.0503,-1.0526,-1.0526,-1.0525,-1.0507,0,-1.0685,-1.0662,-1.0657,-1.0637,-1.0625,-1.0621,-1.0609,-1.0598,-1.0591,-1.0579,-1.057,-1.0556,-1.0558,-1.0552,-1.0542,-1.0532,-1.0521,-1.0533,-1.0513,-1.0513,-1.0518,-1.0499,-1.0499,-1.0482,-1.0504,-1.0504,-1.0503,0,-1.0665,-1.0654,-1.0633,-1.062,-1.0614,-1.0604,-1.0589,-1.0578,-1.0565,-1.056,-1.0549,-1.0545,-1.0529,-1.0534,-1.0511,-1.0519,-1.0511,-1.0504,-1.0504,-1.0502,-1.0508,-1.0497,-1.0477,-1.0474,-1.0499,-1.05,-1.05,0,-1.0658,-1.0637,-1.0622,-1.0616,-1.06,-1.0592,-1.0585,-1.0572,-1.0563,-1.055,-1.0544,-1.0528,-1.052,-1.0507,-1.0498,-1.0503,-1.0476,-1.048,-1.047,-1.047,-1.0465,-1.0466,-1.0444,-1.0459,-1.0459,-1.046,-1.046,0,-1.0642,-1.063,-1.0619,-1.0609,-1.0594,-1.0587,-1.0572,-1.0564,-1.0553,-1.0541,-1.0536,-1.0524,-1.0513,-1.0499,-1.0491,-1.0473,-1.0469,-1.0464,-1.0462,-1.0465,-1.0465,-1.0459,-1.046,-1.0459,-1.0459,-1.0459,-1.0459,0,-1.0632,-1.0624,-1.0607,-1.0593,-1.0589,-1.0579,-1.0566,-1.0556,-1.0548,-1.0533,-1.0529,-1.0516,-1.05,-1.049,-1.0468,-1.0463,-1.0443,-1.0442,-1.0448,-1.0447,-1.0438,-1.0439,-1.0412,-1.0407,-1.0426,-1.0426,-1.0426,0,-1.0623,-1.0613,-1.0598,-1.059,-1.0583,-1.057,-1.0562,-1.0553,-1.0544,-1.0527,-1.0519,-1.0503,-1.0489,-1.0463,-1.0451,-1.0434,-1.0432,-1.0424,-1.043,-1.0432,-1.0432,-1.0433,-1.0431,-1.0423,-1.0423,-1.0422,-1.0422,0,-1.0607,-1.0604,-1.0592,-1.0578,-1.0568,-1.0557,-1.0545,-1.0538,-1.0528,-1.0517,-1.0501,-1.0491,-1.0469,-1.0453,-1.0435,-1.0425,-1.0422,-1.042,-1.0417,-1.042,-1.0424,-1.0421,-1.0446,-1.0421,-1.0421,-1.0421,-1.0421,-1.0422,-1.0597,-1.0588,-1.0576,-1.0563,-1.0553,-1.0542,-1.0532,-1.0523,-1.051,-1.0493,-1.0488,-1.0471,-1.0456,-1.0432,-1.0423,-1.0408,-1.0409,-1.0405,-1.0403,-1.0402,-1.0402,-1.0426,-1.0405,-1.0405,-1.0405,-1.0405,-1.0405,0,-1.0581,-1.0573,-1.0561,-1.0546,-1.0534,-1.0533,-1.052,-1.051,-1.0496,-1.0483,-1.047,-1.045,-1.0434,-1.042,-1.0403,-1.0394,-1.0392,-1.0389,-1.039,-1.0388,-1.0403,-1.0407,-1.0392,-1.0392,-1.0392,-1.0392,-1.0392,-1.0392,-1.0572,-1.0557,-1.0551,-1.053,-1.0522,-1.0506,-1.0499,-1.0488,-1.0478,-1.0457,-1.0444,-1.0435,-1.0422,-1.0403,-1.0387,-1.0384,-1.0377,-1.0376,-1.0371,-1.0385,-1.0387,-1.0388,-1.0393,-1.0374,-1.0374,-1.0358,-1.0358,-1.0358]},{"header":{"parameterUnit":"m.s-1","parameterCategory":1,"la1":30.2991,"la2":30.254,"lo1":-89.0895,"lo2":-89.0444,"dy":0.0017,"dx":0.0017,"nx":28,"ny":28,"refTime":"2024-06-11T21:00:00:Z","depth":0,"parameterNumber":3,"parameterNumberName":"V-component_of_WINDS"},"data":[0,0,0,0,0,0,0,0,0,0,0,0,0,0,0,0,0,0,0,0,0,0,0,0,0,0,0,0,0,0,0,0,0,0,0,0,0,0,0,0,0,0,0,0,0,0,0,0,0,0,0,0,0,0,0,0,0,0,-2.1543,-2.1545,0,-2.1776,-2.1779,-2.1781,-2.1921,-2.1922,-2.1923,-2.1923,-2.2158,-2.2163,-2.2169,0,0,0,0,0,0,0,0,0,0,0,0,0,-2.1215,-2.122,-2.1543,-2.1546,-2.1548,-2.1775,-2.1779,-2.1782,-2.1921,-2.1922,-2.1923,-2.1924,-2.2156,-2.2163,-2.2169,0,0,0,0,0,0,0,0,0,0,0,0,0,-2.1393,-2.1222,-2.1542,-2.1645,-2.1657,-2.1775,-2.1779,-2.1783,-2.1921,-2.1922,-2.1923,-2.1924,-2.2154,-2.2162,-2.217,-2.2202,0,0,-2.2196,-2.22,0,0,0,0,0,0,0,0,-2.1383,-2.1405,-2.1627,-2.1639,-2.1652,-2.1821,-2.1749,-2.1923,-2.1921,-2.1821,-2.1923,-2.1924,-2.2044,-2.2062,-2.2103,-2.2213,-2.2223,-2.2197,-2.2202,-2.2205,-2.2208,0,0,0,0,0,0,0,-2.137,-2.1396,-2.1635,-2.163,-2.1645,-2.1679,-2.1705,-2.1783,-2.1924,-2.1829,-2.184,-2.1866,-2.2051,-2.2095,-2.211,-2.2226,-2.2196,-2.2204,-2.2209,-2.2212,-2.2374,-2.2373,0,0,0,0,0,0,-2.1342,-2.1384,-2.1627,-2.1642,-2.1517,-2.1684,-2.1714,-2.1765,-2.1924,-2.1949,-2.1865,-2.1872,-2.208,-2.21,-2.2119,-2.2167,-2.2205,-2.2213,-2.2218,-2.2375,-2.2374,-2.2373,0,0,0,0,0,0,-2.1334,-2.1362,-2.1618,-2.1516,-2.1551,-2.1689,-2.1745,-2.1769,-2.1813,-2.195,-2.1976,-2.1884,-2.2082,-2.2107,-2.2181,-2.2176,-2.2217,-2.2225,-2.2376,-2.2374,-2.2373,-2.2262,0,0,0,0,0,0,-2.1324,-2.1359,-2.1373,-2.1516,-2.1556,-2.1677,-2.1745,-2.1773,-2.1828,-2.1839,-2.1975,-2.1998,-2.2084,-2.2167,-2.2189,-2.2189,-2.2231,-2.2376,-2.2375,-2.2374,-2.2266,-2.2257,-2.2249,0,0,0,0,0,-2.1312,-2.1331,-2.1373,-2.1402,-2.1577,-2.1676,-2.17,-2.1799,-2.1827,-2.1842,-2.193,-2.1994,-2.2173,-2.2174,-2.2199,-2.2201,-2.2377,-2.2375,-2.2374,-2.227,-2.2259,-2.2249,0,0,0,0,0,0,-2.1183,-2.1352,-2.14,-2.1466,-2.1556,-2.17,-2.1722,-2.1784,-2.1867,-2.1873,-2.1992,-2.2022,-2.2084,-2.215,-2.2147,-2.2241,-2.2282,-2.2286,-2.2195,-2.2185,-2.2176,-2.2159,-2.2238,0,0,0,0,0,-2.1163,-2.123,-2.1374,-2.1418,-2.1461,-2.1583,-2.163,-2.1699,-2.1797,-2.1835,-2.1929,-2.2019,-2.2097,-2.2145,-2.2223,-2.2277,-2.2308,-2.2291,-2.2282,-2.2274,-2.2275,-2.2308,-2.2302,-2.2367,-2.2367,-2.2367,0,0,-2.1121,-2.1221,-2.1256,-2.1395,-2.1473,-2.1539,-2.1614,-2.1681,-2.1731,-2.1845,-2.1921,-2.1992,-2.2101,-2.2165,-2.2198,-2.2222,-2.2264,-2.2272,-2.2265,-2.227,-2.2306,-2.23,-2.2294,-2.2366,-2.2366,-2.2366,0,0,-2.1078,-2.1161,-2.1208,-2.1284,-2.1402,-2.1483,-2.1493,-2.1628,-2.1681,-2.1759,-2.1846,-2.1906,-2.2036,-2.2111,-2.2165,-2.2151,-2.2212,-2.2173,-2.2127,-2.2157,-2.2152,-2.2148,-2.2142,-2.2139,-2.2174,-2.2173,-2.2173,0,-2.1011,-2.1115,-2.1223,-2.1286,-2.1343,-2.1451,-2.1498,-2.1567,-2.1702,-2.1739,-2.1765,-2.1931,-2.2012,-2.2095,-2.2091,-2.2132,-2.2147,-2.2158,-2.2144,-2.2142,-2.2139,-2.2135,-2.2133,-2.2168,-2.2168,-2.2169,-2.217,0,-2.1026,-2.1097,-2.1121,-2.1251,-2.1311,-2.1365,-2.148,-2.1528,-2.1592,-2.167,-2.1748,-2.1849,-2.195,-2.1975,-2.2037,-2.2066,-2.2077,-2.2122,-2.2167,-2.2126,-2.2124,-2.2123,-2.216,-2.2162,-2.2163,-2.2165,0,0,-2.0909,-2.1099,-2.1105,-2.1166,-2.1303,-2.1359,-2.1417,-2.1518,-2.1556,-2.1646,-2.1698,-2.1806,-2.1848,-2.191,-2.1982,-2.2009,-2.199,-2.2051,-2.2055,-2.2035,-2.2028,-2.1992,-2.1989,-2.2032,-2.2032,-2.2032,-2.2018,0,-2.0886,-2.0998,-2.1097,-2.1172,-2.1239,-2.1342,-2.1393,-2.1481,-2.1556,-2.1622,-2.1704,-2.1778,-2.1829,-2.1867,-2.1899,-2.1985,-2.199,-2.1988,-2.208,-2.2082,-2.2049,-2.1988,-2.1952,-2.1933,-2.2018,-2.2018,-2.2018,0,-2.0875,-2.0962,-2.1044,-2.1175,-2.1206,-2.125,-2.135,-2.1413,-2.1515,-2.1567,-2.1636,-2.1712,-2.1777,-2.1815,-2.1906,-2.1902,-2.1946,-2.1994,-2.1996,-2.2008,-2.2047,-2.1998,-2.193,-2.1927,-2.2018,-2.2018,-2.2018,0,-2.078,-2.0918,-2.0985,-2.1034,-2.1188,-2.1216,-2.1282,-2.1386,-2.1439,-2.1526,-2.1561,-2.1653,-2.1704,-2.1773,-2.1871,-2.1889,-2.1951,-2.1997,-2.1995,-2.1993,-2.2003,-2.2001,-2.1941,-2.2032,-2.2032,-2.2032,-2.2032,0,-2.0744,-2.079,-2.0945,-2.0986,-2.104,-2.1153,-2.1203,-2.1277,-2.1368,-2.1425,-2.1519,-2.1569,-2.1696,-2.1761,-2.1838,-2.1902,-2.1924,-2.1967,-2.1987,-2.1958,-2.1953,-2.1988,-2.1991,-2.2031,-2.2031,-2.2031,-2.2031,0,-2.0648,-2.0754,-2.0833,-2.0973,-2.1009,-2.1043,-2.1162,-2.1205,-2.1285,-2.1355,-2.1378,-2.1502,-2.1584,-2.1689,-2.1804,-2.1855,-2.191,-2.1941,-2.1875,-2.1887,-2.1879,-2.1878,-2.1839,-2.1839,-2.1929,-2.1928,-2.1927,0,-2.0618,-2.0656,-2.08,-2.0845,-2.0908,-2.098,-2.1035,-2.1147,-2.1201,-2.132,-2.1348,-2.1438,-2.1515,-2.1641,-2.1741,-2.1829,-2.1862,-2.1843,-2.1876,-2.1846,-2.1861,-2.1858,-2.1862,-2.1833,-2.1832,-2.1831,-2.183,0,-2.0553,-2.0604,-2.0681,-2.0776,-2.084,-2.092,-2.1004,-2.1036,-2.1165,-2.122,-2.1306,-2.1365,-2.1483,-2.157,-2.1671,-2.1738,-2.1804,-2.1819,-2.1823,-2.1794,-2.1754,-2.1775,-2.1852,-2.1819,-2.182,-2.1821,-2.1821,-2.1822,-2.049,-2.0528,-2.0635,-2.0718,-2.0793,-2.087,-2.0917,-2.1003,-2.1077,-2.1182,-2.1243,-2.1326,-2.1428,-2.1571,-2.1634,-2.17,-2.1725,-2.1731,-2.1732,-2.1732,-2.1723,-2.1744,-2.1718,-2.1719,-2.1719,-2.172,-2.172,0,-2.0429,-2.0504,-2.0579,-2.0694,-2.0759,-2.0818,-2.0914,-2.0963,-2.1036,-2.1125,-2.12,-2.1297,-2.1382,-2.1489,-2.1581,-2.1613,-2.1646,-2.1633,-2.1632,-2.1646,-2.1695,-2.1682,-2.1605,-2.1605,-2.1605,-2.1605,-2.1605,-2.1605,-2.0406,-2.0474,-2.0537,-2.0643,-2.0717,-2.08,-2.0849,-2.092,-2.0992,-2.1097,-2.1169,-2.1238,-2.1334,-2.1434,-2.1514,-2.1543,-2.1572,-2.155,-2.1588,-2.1632,-2.1642,-2.1652,-2.164,-2.1556,-2.1555,-2.1533,-2.1533,-2.1533]}]]